Date String (YYYY-MM-DD hh:mm:ss) UTC,Instrument flags,Ambient pressure (hPa),Sample flow (lpm),Bypass flow (lpm),Sample temperature (°C),Ambient temperature (°C),ASC tube jacket temperature (°C),LED temperature (°C),Box temperature (°C),Sample RH (%),Span deviation,Mass concentration (μg/m³),Mass concentration (μg/m³),Mass concentration (μg/m³)
DateTimeUTC,F1_M11,P_M11,Q1_M11,Q2_M11,T1_M11,T2_M11,T3_M11,T4_M11,T5_M11,U1_M11,ZSPAN_M11,X0_M11,X2_M11,X1_M11
2021-12-19 16:00:00,,0824.6,4.99,0.00,23.6,23.1,00.0,32.5,25.5,05.8,0000.0,0003.26,0002.12,0001.69
2021-12-19 16:01:00,,0824.7,5.02,0.00,23.7,23.1,00.0,32.5,25.5,05.8,0000.0,0003.29,0002.10,0001.70
2021-12-19 16:02:00,,0824.7,4.99,0.00,23.7,23.1,00.0,32.5,25.5,05.8,0000.0,0003.52,0002.17,0001.72
2021-12-19 16:03:00,,0824.6,5.01,0.00,23.7,23.1,00.0,32.5,25.6,05.9,0000.0,0004.32,0002.26,0001.76
2021-12-19 16:04:00,,0824.8,5.00,0.00,23.7,23.2,00.0,32.6,25.6,05.8,0000.0,0004.88,0002.27,0001.79
2021-12-19 16:05:00,,0824.6,5.00,0.00,23.8,23.2,00.0,32.6,25.6,05.7,0000.0,0004.99,0002.33,0001.80
2021-12-19 16:06:00,,0824.6,4.99,0.00,23.8,23.2,00.0,32.6,25.6,05.7,0000.0,0005.00,0002.34,0001.83
2021-12-19 16:07:00,,0824.6,5.00,0.00,23.8,23.2,00.0,32.6,25.6,05.6,0000.0,0006.23,0002.39,0001.86
2021-12-19 16:08:00,,0824.6,5.01,0.00,23.8,23.2,00.0,32.7,25.6,05.6,0000.0,0006.54,0002.42,0001.86
2021-12-19 16:09:00,,0824.6,5.00,0.00,23.9,23.3,00.0,32.7,25.7,05.6,0000.0,0006.71,0002.44,0001.88
2021-12-19 16:10:00,,0824.6,5.00,0.00,23.9,23.3,00.0,32.7,25.7,05.6,0000.0,0006.64,0002.42,0001.88
2021-12-19 16:11:00,,0824.7,4.99,0.00,23.9,23.3,00.0,32.7,25.7,05.7,0000.0,0006.86,0002.49,0001.88
2021-12-19 16:12:00,,0824.6,5.01,0.00,23.9,23.3,00.0,32.7,25.7,06.2,0000.0,0007.46,0002.59,0001.93
2021-12-19 16:13:00,,0824.6,4.99,0.00,23.9,23.3,00.0,32.8,25.8,06.1,0000.0,0008.24,0002.68,0001.98
2021-12-19 16:14:00,,0824.6,5.02,0.00,24.0,23.4,00.0,32.8,25.9,06.5,0000.0,0008.81,0002.83,0002.05
2021-12-19 16:15:00,,0824.6,4.98,0.00,24.0,23.4,00.0,32.8,25.9,05.9,0000.0,0008.99,0002.90,0002.08
2021-12-19 16:16:00,,0824.7,5.01,0.00,24.0,23.4,00.0,32.8,25.9,06.0,0000.0,0009.25,0002.96,0002.13
2021-12-19 16:17:00,,0824.7,4.99,0.00,24.0,23.4,00.0,32.9,26.0,06.4,0000.0,0009.36,0003.12,0002.26
2021-12-19 16:18:00,,0824.7,5.01,0.00,24.1,23.4,00.0,32.9,26.0,06.7,0000.0,0009.19,0003.24,0002.42
2021-12-19 16:19:00,,0824.7,5.00,0.00,24.1,23.5,00.0,32.9,26.0,06.5,0000.0,0009.45,0003.35,0002.58
2021-12-19 16:20:00,,0824.6,5.01,0.00,24.1,23.5,00.0,32.9,26.0,06.1,0000.0,0009.55,0003.45,0002.70
2021-12-19 16:21:00,,0824.6,4.99,0.00,24.1,23.5,00.0,32.9,26.0,05.7,0000.0,0009.60,0003.48,0002.76
2021-12-19 16:22:00,,0824.6,5.01,0.00,24.1,23.5,00.0,33.0,26.0,05.8,0000.0,0009.81,0003.50,0002.82
2021-12-19 16:23:00,,0824.6,4.99,0.00,24.1,23.5,00.0,33.0,26.0,05.5,0000.0,0009.55,0003.47,0002.80
2021-12-19 16:24:00,,0824.6,5.00,0.00,24.2,23.5,00.0,33.0,26.0,05.6,0000.0,0008.85,0003.39,0002.73
2021-12-19 16:25:00,,0824.6,5.00,0.00,24.2,23.5,00.0,33.0,26.0,06.3,0000.0,0008.34,0003.36,0002.73
2021-12-19 16:26:00,,0824.6,5.00,0.00,24.2,23.6,00.0,33.0,26.0,06.1,0000.0,0008.49,0003.44,0002.81
2021-12-19 16:27:00,,0824.7,5.00,0.00,24.2,23.6,00.0,33.0,26.1,06.4,0000.0,0008.75,0003.50,0002.87
2021-12-19 16:28:00,,0824.8,5.01,0.00,24.2,23.6,00.0,33.1,26.1,06.5,0000.0,0008.78,0003.54,0002.91
2021-12-19 16:29:00,,0824.8,5.00,0.00,24.3,23.6,00.0,33.1,26.1,06.5,0000.0,0008.93,0003.57,0002.93
2021-12-19 16:30:00,,0824.8,5.01,0.00,24.3,23.6,00.0,33.1,26.2,06.3,0000.0,0009.55,0003.57,0002.90
2021-12-19 16:31:00,,0824.6,5.00,0.00,24.3,23.7,00.0,33.1,26.2,05.9,0000.0,0009.90,0003.53,0002.85
2021-12-19 16:32:00,,0824.7,5.00,0.00,24.3,23.7,00.0,33.1,26.2,06.1,0000.0,0010.64,0003.54,0002.85
2021-12-19 16:33:00,,0824.8,5.02,0.00,24.3,23.7,00.0,33.2,26.2,06.1,0000.0,0011.43,0003.57,0002.88
2021-12-19 16:34:00,,0824.8,4.99,0.00,24.4,23.7,00.0,33.2,26.2,05.9,0000.0,0011.32,0003.58,0002.90
2021-12-19 16:35:00,,0824.8,5.00,0.00,24.4,23.7,00.0,33.2,26.3,05.7,0000.0,0011.48,0003.62,0002.93
2021-12-19 16:36:00,,0824.7,5.02,0.00,24.4,23.7,00.0,33.2,26.3,05.4,0000.0,0011.19,0003.56,0002.84
2021-12-19 16:37:00,,0824.8,4.99,0.00,24.4,23.8,00.0,33.3,26.3,05.4,0000.0,0010.88,0003.43,0002.68
2021-12-19 16:38:00,,0824.8,4.99,0.00,24.5,23.8,00.0,33.3,26.3,05.5,0000.0,0010.26,0003.34,0002.56
2021-12-19 16:39:00,,0824.8,5.01,0.00,24.5,23.8,00.0,33.3,26.4,05.2,0000.0,0010.07,0003.21,0002.40
2021-12-19 16:40:00,,0824.8,5.00,0.00,24.5,23.8,00.0,33.3,26.4,05.2,0000.0,0009.63,0002.98,0002.20
2021-12-19 16:41:00,,0824.8,4.99,0.00,24.5,23.9,00.0,33.3,26.4,04.9,0000.0,0008.54,0002.72,0002.01
2021-12-19 16:42:00,,0824.9,5.00,0.00,24.6,23.9,00.0,33.4,26.4,05.3,0000.0,0008.84,0002.58,0001.88
2021-12-19 16:43:00,,0824.8,5.00,0.00,24.6,23.9,00.0,33.4,26.5,05.6,0000.0,0008.26,0002.53,0001.85
2021-12-19 16:44:00,,0824.9,5.01,0.00,24.6,24.0,00.0,33.4,26.5,05.6,0000.0,0007.39,0002.45,0001.82
2021-12-19 16:45:00,,0824.8,4.99,0.00,24.6,24.0,00.0,33.4,26.5,04.9,0000.0,0007.62,0002.39,0001.73
2021-12-19 16:46:00,,0824.5,5.00,0.00,24.6,24.0,00.0,33.4,26.5,04.3,0000.0,0007.97,0002.28,0001.60
2021-12-19 16:47:00,,0824.4,4.99,0.00,24.6,24.0,00.0,33.5,26.5,04.1,0000.0,0009.00,0002.17,0001.51
2021-12-19 16:48:00,,0824.4,5.01,0.00,24.6,23.9,00.0,33.5,26.4,04.0,0000.0,0008.93,0002.05,0001.41
2021-12-19 16:49:00,,0824.4,5.00,0.00,24.6,23.9,00.0,33.5,26.4,04.0,0000.0,0009.01,0001.90,0001.31
2021-12-19 16:50:00,,0824.7,5.01,0.00,24.6,23.8,00.0,33.5,26.4,04.0,0000.0,0008.81,0001.72,0001.20
2021-12-19 16:51:00,,0824.6,4.98,0.00,24.6,23.8,00.0,33.5,26.4,03.9,0000.0,0008.73,0001.61,0001.11
2021-12-19 16:52:00,,0824.6,5.01,0.00,24.7,23.8,00.0,33.5,26.5,03.8,0000.0,0008.77,0001.48,0001.02
2021-12-19 16:53:00,,0824.8,4.99,0.00,24.7,23.8,00.0,33.5,26.5,04.2,0000.0,0007.96,0001.41,0000.98
2021-12-19 16:54:00,,0824.7,5.00,0.00,24.7,23.8,00.0,33.6,26.5,04.8,0000.0,0007.93,0001.30,0000.93
2021-12-19 16:55:00,,0824.7,5.00,0.00,24.7,23.9,00.0,33.6,26.5,05.3,0000.0,0008.14,0001.26,0000.90
2021-12-19 16:56:00,,0824.8,5.00,0.00,24.7,23.9,00.0,33.6,26.6,05.4,0000.0,0007.62,0001.25,0000.92
2021-12-19 16:57:00,,0824.8,5.01,0.00,24.7,24.0,00.0,33.6,26.6,05.3,0000.0,0007.58,0001.32,0001.02
2021-12-19 16:58:00,,0824.7,4.99,0.00,24.7,24.0,00.0,33.6,26.6,05.2,0000.0,0005.31,0001.45,0001.16
2021-12-19 16:59:00,,0824.6,4.99,0.00,24.7,24.0,00.0,33.6,26.6,05.6,0000.0,0004.99,0001.67,0001.31
